Miscellaneous Local Product
Issued by NWS North Platte, NE

Home | Current Version | Previous Version | Text Only | Print | Product List | Glossary On
Versions: 1 2 3 4 5 6 7 8 9 10 11 12 13 14 15 16 17 18 19 20 21 22 23 24 25 26 27 28 29 30 31 32 33 34 35 36 37 38 39 40 41 42 43 44 45 46 47 48 49 50
946
AXUS43 KLBF 071610
MISLBF


WESTERN AND NORTH CENTRAL NEBRASKA HOURLY WEATHER ROUNDUP
NATIONAL WEATHER SERVICE NORTH PLATTE NE
1000 AM CST SUN FEB 07 2016

NOTE: "FAIR" INDICATES FEW OR NO CLOUDS BELOW 12,000 FEET WITH NO
SIGNIFICANT WEATHER AND/OR OBSTRUCTIONS TO VISIBILITY.

NOTE: STATIONS NOT REPORTING VARIABLES SUCH AS SKY/WEATHER OR
PRESSURE ARE PROVIDED BY THE NEBRASKA DEPARTMENT OF
ROADS...RAWS...AND APRS NETWORKS...AND ARE NOT UNDER
NATIONAL WEATHER SERVICE QUALITY CONTROL.

...OBSERVATIONS IN AND NEAR THE EASTERN PANHANDLE OF NEBRASKA...

CITY           SKY/WX    TMP DP  RH WIND       PRES   REMARKS
PINE RIDGE     SUNNY     36  12  37 NW15G23   30.17S WCI  27
CHADRON        SUNNY     35  16  45 NW18G25   30.22R WCI  24
ALLIANCE       CLOUDY    32  17  54 MISG      30.21R
SIDNEY         LGT SNOW  29  26  89 NW23      30.28R FOG     WCI  15
BIG SPRINGS      N/A     33  28  81 W12         N/A  WCI  24
$$

...OBSERVATIONS IN NORTH CENTRAL NEBRASKA...

CITY           SKY/WX    TMP DP  RH WIND       PRES   REMARKS
VALENTINE      SUNNY     38  17  42 W26G40    30.06F WCI  26
THEDFORD       CLOUDY    40  19  43 NW25G35   30.14S WCI  29
AINSWORTH      SUNNY     38  17  42 W29G38    30.06F WCI  26
O`NEILL        SUNNY     40  20  45 W28G37    30.02S WCI  28
ORD            MOSUNNY   39  23  52 NW21G29   30.08R WCI  29
BROKEN BOW     MOSUNNY   38  23  55 NW21      30.12R WCI  28
BUTTE            N/A     38  22  51 W32G47      N/A  WCI  25
CHAMBERS         N/A     41  21  45 W6G17       N/A
EWING            N/A     39  26  58 W17G25      N/A  WCI  30
$$

...OBSERVATIONS IN SOUTHWEST NEBRASKA AND FAR NORTHEAST COLORADO...

CITY           SKY/WX    TMP DP  RH WIND       PRES   REMARKS
WRAY           CLOUDY    31  22  67 NW15      30.29R WCI  21
HOLYOKE        FAIR      36  27  69 NW18G25   30.29R WCI  25
IMPERIAL       PTSUNNY   34  24  67 NW18      30.25R WCI  23
OGALLALA       CLOUDY    34  23  64 NW24G30   30.24R WCI  22
NORTH PLATTE   CLOUDY    37  22  54 NW21      30.19R WCI  26
MCCOOK         CLOUDY    37  25  61 NW14      30.22R WCI  28
LEXINGTON      CLOUDY    37  24  60 NW15      30.17R WCI  28
PAXTON           N/A     35  28  76 W9          N/A  WCI  28
STAPLETON        N/A     35  27  73 W3          N/A
GOTHENBURG       N/A     37  23  58 W9          N/A  WCI  30
CALLAWAY         N/A     35  26  69 NW20        N/A  WCI  24
$$

...OBSERVATIONS IN CENTRAL LINCOLN COUNTY AREA...

CITY           SKY/WX    TMP DP  RH WIND       PRES   REMARKS
N.P. AIRPORT   CLOUDY    37  22  54 NW21      30.19R WCI  26
N.P. DOWNTOWN    N/A     38  25  58 W8G16       N/A  WCI  32
N.P. SOUTHEAST   N/A     38  23  55 NW7G17      N/A  WCI  33
N.P. HILLCREST   N/A     38  25  58 NW17        N/A  WCI  28
$$

...SOME OBSERVATIONS FROM AROUND THE REGION...

CITY           SKY/WX    TMP DP  RH WIND       PRES   REMARKS
DENVER         MOSUNNY   30  18  60 E16       30.27R WCI  19
LARAMIE        SUNNY     26  17  68 W16       30.24R WCI  14
CHEYENNE       CLOUDY    24  19  81 N16G22    30.26R WCI  11
SCOTTSBLUFF    CLOUDY    31  22  69 NW15      30.29R WCI  20
RAPID CITY     SUNNY     36  10  34 NW45G60   30.11S WCI  21
BISMARCK       CLOUDY    34  21  59 NW32G60   29.85R WCI  20
PIERRE         CLOUDY    37  22  54 NW43G56   29.93R WCI  22
WINNER         FAIR      38  18  44 W26G39    29.99S WCI  26
SIOUX FALLS    MOSUNNY   37  27  67 W21G31    29.83F WCI  26
OMAHA          MOSUNNY   41  26  55 W18       29.99R
GRAND ISLAND   MOSUNNY   40  23  50 NW20      30.11R WCI  30
KANSAS CITY    CLOUDY    43  29  57 NW10      30.04R
WICHITA        CLOUDY    46  27  47 N16       30.15R
OKLAHOMA CITY  CLOUDY    42  28  57 SW7       30.15F
LIBERAL        SUNNY     43  27  52 N13       30.24S
HAYS           SUNNY     39  23  52 NW13      30.21R WCI  32
GOODLAND       SUNNY     30  18  60 NW15      30.27R WCI  19
$$




USA.gov is the U.S. government's official web portal to all federal, state and local government web resources and services.